Regional Weather Roundup
Issued by NWS

Home | Current Version | Previous Version | Text Only | Print | Product List | Glossary Off
Versions: 1 2 3 4 5 6 7 8 9 10 11 12 13 14 15 16 17 18 19 20 21 22 23 24 25 26 27

000
ASUS45 KBOI 050910
RWRID

IDAHO REGIONAL WEATHER ROUNDUP
NATIONAL WEATHER SERVICE BOISE ID
300 AM MDT THU MAY 05 2016

NOTE: "FAIR" INDICATES FEW OR NO CLOUDS BELOW 12000 FEET
WITH NO SIGNIFICANT WEATHER AND/OR OBSTRUCTIONS TO VISIBILITY

IDZ012-014-051000-
SOUTHWEST IDAHO


CITY           SKY/WX    TMP DP  RH WIND       PRES   REMARKS
BOISE          CLOUDY    66  44  45 NW13G20   29.87R
CALDWELL       LGT RAIN  62  49  62 NW9       29.86R
MOUNTAIN HOME  MOCLDY    56  40  55 NW5       29.83S
$$

IDZ016-017-051000-
SOUTHCENTRAL IDAHO


CITY           SKY/WX    TMP DP  RH WIND       PRES   REMARKS
BURLEY         MOCLDY    50  44  80 CALM      29.90F
JEROME         CLOUDY    58  38  47 E12       29.89F
TWIN FALLS     MOCLDY    59  34  39 S14       29.88F
$$

IDZ019>023-051000-
SOUTHEAST IDAHO


CITY           SKY/WX    TMP DP  RH WIND       PRES   REMARKS
IDAHO FALLS    CLOUDY    46  37  71 N5        29.99F
POCATELLO      CLOUDY    49  41  74 CALM      29.96F
REXBURG        CLOUDY    48  36  63 CALM      30.01F
$$

IDZ006-010-011-018-031-032-051000-
CENTRAL IDAHO MOUNTAINS


CITY           SKY/WX    TMP DP  RH WIND       PRES   REMARKS
MCCALL         CLOUDY    56  38  50 SE9       29.96R
HAILEY         PTCLDY    46  36  66 NW7       30.01F
STANLEY          N/A     41  31  67 SW5       30.06S
SALMON         CLOUDY    48  32  53 CALM      29.93R
CHALLIS        CLEAR     48  32  53 SE5       29.98F
$$

IDZ002-004-006-007-026-051000-
NORTHERN IDAHO


CITY           SKY/WX    TMP DP  RH WIND       PRES   REMARKS
LEWISTON       PTCLDY    59  47  64 E5        29.89R
LOWELL           N/A     55  50  83 CALM      29.92R
COEUR D`ALENE  CLOUDY    54  48  82 E12       29.86F
MULLAN PASS    MOCLDY    44  43  96 NW7       30.00F
$$




USA.gov is the U.S. government's official web portal to all federal, state and local government web resources and services.